McCall, ID

2:40 AM MDT on May 27, 2017 (GMT -0600)
McCall

Weather History for KMYL - March, 2014

Change the Weather History Date:

Monday, March 24, 2014

  Actual Average Record
Temperature  
Mean Temperature 33 °F 31 °F  
Max Temperature 50 °F 42 °F 59 °F (1939)
Min Temperature 16 °F 21 °F -2 °F (1965)
Degree Days  
Heating Degree Days 32 34  
Month to date heating degree days 790 884  
Since 1 July heating degree days 6784 7559  
Cooling Degree Days 0 0  
Month to date cooling degree days 0 0  
Year to date cooling degree days 0 0  
Moisture  
Dew Point 17 °F    
Average Humidity 57    
Maximum Humidity 88    
Minimum Humidity 26    
Precipitation  
Precipitation 0.00 in 0.07 in 0.65 in (1938)
Month to date precipitation 4.19 1.60  
Year to date precipitation 9.00 5.07  
Sea Level Pressure  
Sea Level Pressure 30.25 in    
Wind  
Wind Speed 1 mph (SE)    
Max Wind Speed 9 mph    
Max Gust Speed 11 mph    
Visibility 10 miles    
Events      
T = Trace of Precipitation, MM = Missing Value Source: NWS Daily Summary

Daily Weather History Graph

Daily Weather History Graph

Search for Another Location

Airport or City:

Trip Planner

Search our weather history database for the weather conditions in past years. The results will help you decide how hot, cold, wet, or windy it might be!

Date:

Astronomy

Mar. 24, 2014 Rise Set
Actual Time 7:39 AM MDT 8:02 PM MDT
Civil Twilight 7:10 AM MDT 8:31 PM MDT
Nautical Twilight 6:36 AM MDT 9:06 PM MDT
Astronomical Twilight 6:00 AM MDT 9:41 PM MDT
Moon 3:28 AM MDT (3/24) 1:18 PM MDT (3/24)
Length of Visible Light 13h 20m
Length of Day
12h 22m
Last Quarter, 42% of the Moon is Illuminated
Mar 24
Last Quarter
Mar 30
New
Apr 7
First Quarter
Apr 15
Full
Apr 22
Last Quarter

Hourly Weather History & Observations

Time (MDT) Temp. Windchill Dew Point Humidity Pressure Visibility Wind Dir Wind Speed Gust Speed Precip Events Conditions
12:51 AM 25.0 °F 20.7 °F 18.0 °F 75% 30.27 in 10.0 mi NW 3.5 mph - N/A   Clear
1:51 AM 23.0 °F - 17.1 °F 78% 30.27 in 10.0 mi Calm Calm - N/A   Clear
2:51 AM 23.0 °F - 16.0 °F 74% 30.27 in 10.0 mi Calm Calm - N/A   Clear
3:51 AM 21.0 °F - 15.1 °F 78% 30.26 in 10.0 mi Calm Calm - N/A   Clear
4:51 AM 19.9 °F - 14.0 °F 78% 30.27 in 10.0 mi Calm Calm - N/A   Clear
5:51 AM 19.0 °F - 12.9 °F 77% 30.27 in 10.0 mi Calm Calm - N/A   Clear
6:51 AM 19.9 °F - 12.9 °F 74% 30.28 in 10.0 mi Calm Calm - N/A   Clear
7:51 AM 16.0 °F - 12.9 °F 88% 30.31 in 10.0 mi Calm Calm - N/A   Clear
8:51 AM 23.0 °F - 15.1 °F 72% 30.32 in 10.0 mi Calm Calm - N/A   Clear
9:51 AM 28.0 °F - 15.1 °F 58% 30.32 in 10.0 mi Calm Calm - N/A   Mostly Cloudy
10:51 AM 30.0 °F - 17.1 °F 59% 30.32 in 10.0 mi Calm Calm - N/A   Clear
11:51 AM 34.0 °F 31.0 °F 17.1 °F 50% 30.31 in 10.0 mi South 3.5 mph - N/A   Clear
12:51 PM 39.0 °F - 21.0 °F 49% 30.30 in 10.0 mi Calm Calm - N/A   Clear
1:51 PM 42.1 °F - 21.9 °F 45% 30.28 in 10.0 mi Calm Calm - N/A   Clear
2:51 PM 46.0 °F 43.9 °F 17.1 °F 31% 30.25 in 10.0 mi SE 4.6 mph - N/A   Clear
3:51 PM 48.9 °F - 16.0 °F 27% 30.23 in 10.0 mi SSE 3.5 mph - N/A   Clear
4:51 PM 48.0 °F - 18.0 °F 30% 30.22 in 10.0 mi SSE 6.9 mph - N/A   Clear
5:51 PM 48.9 °F - 17.1 °F 28% 30.20 in 10.0 mi South 6.9 mph - N/A   Clear
6:51 PM 48.0 °F - 17.1 °F 29% 30.18 in 10.0 mi Calm Calm - N/A   Clear
7:51 PM 44.1 °F 42.5 °F 19.9 °F 38% 30.19 in 10.0 mi NNE 3.5 mph - N/A   Clear
8:51 PM 37.9 °F 35.5 °F 19.9 °F 48% 30.17 in 10.0 mi NE 3.5 mph - N/A   Clear
9:51 PM 34.0 °F - 21.0 °F 59% 30.17 in 10.0 mi Calm Calm - N/A   Clear
10:51 PM 32.0 °F - 21.0 °F 64% 30.16 in 10.0 mi Calm Calm - N/A   Clear
11:51 PM 30.9 °F - 19.9 °F 64% 30.13 in 10.0 mi Calm Calm - N/A   Clear